Wind_Speed
6 5 5 5 5 4 4 4 5 5 5 4 4 4 4 5 5 4 3 3 4 5 6 6 6 7 7 7 7 7 7 8 7 7 7 8 8 8 9 9 10 10 10
6 5 5 5 5 5 4 4 5 5 5 4 4 5 5 6 5 4 4 3 4 4 5 6 6 6 7 7 6 7 7 7 6 7 7 7 7 8 9 9 10 11 11
7 6 5 5 5 5 5 5 5 5 5 5 5 5 4 5 5 4 4 5 5 6 5 6 6 6 5 5 5 5 5 6 7 7 7 7 7 7 8 9 10 10 11
6 6 5 5 5 5 5 6 5 4 4 5 5 5 4 4 4 5 5 6 6 6 6 6 6 6 5 5 5 5 6 6 6 6 6 6 7 7 7 8 9 10 10
7 7 6 5 6 6 6 5 5 4 4 5 5 4 3 3 3 4 5 6 6 7 6 6 5 5 6 6 7 6 6 7 7 7 7 6 7 8 8 8 8 9 10
8 7 7 6 6 6 6 5 5 5 4 4 4 4 4 4 4 4 4 5 6 6 7 7 6 6 7 7 7 7 7 8 7 7 7 7 8 9 9 9 9 10 10
8 8 8 7 7 7 6 6 6 5 5 5 5 5 5 5 5 5 5 5 6 7 7 7 7 7 7 7 7 7 7 8 7 7 8 8 9 9 10 10 10 9 9
8 8 8 7 7 7 6 6 6 6 6 6 6 6 6 6 6 6 6 7 7 8 7 7 7 7 6 7 7 7 7 7 7 8 8 9 9 8 9 10 9 9 9
8 8 8 7 7 6 6 6 7 6 6 7 7 7 7 7 6 6 7 7 7 8 8 8 7 7 7 7 8 7 7 7 7 7 8 8 9 9 9 9 9 10 10
8 8 8 8 7 7 6 7 7 6 7 7 7 6 6 6 6 6 7 7 8 8 8 7 8 8 8 8 8 7 8 8 7 7 8 8 9 10 9 9 10 10 10
9 9 8 7 8 7 7 7 7 7 7 7 7 7 7 7 7 7 8 8 9 9 9 8 8 8 7 8 8 8 9 9 8 8 8 8 8 9 9 9 10 10 10
9 9 9 8 7 8 8 7 7 8 8 9 8 7 8 8 8 7 7 7 8 8 8 7 8 8 8 8 8 9 10 10 10 10 9 9 9 10 9 9 10 11 11
9 9 9 9 8 8 8 7 7 8 8 9 8 8 8 8 8 7 7 7 7 7 7 8 8 9 9 9 9 10 10 10 10 10 10 10 11 11 11 10 11 11 12
10 10 9 9 9 8 8 8 8 8 8 8 9 8 8 9 8 8 8 8 8 8 9 10 11 11 11 11 11 11 11 11 11 11 11 11 12 12 13 13 13 13 13
11 10 10 10 10 9 9 9 9 9 9 9 9 9 9 9 10 10 10 10 10 10 10 10 11 11 12 12 12 13 13 13 13 13 12 12 13 14 14 14 14 15 15
12 11 12 11 11 10 11 11 10 11 11 10 10 11 10 10 10 11 11 11 11 11 11 11 12 13 13 14 13 14 14 14 14 14 14 15 15 16 16 16 16 17 17
13 13 13 13 12 12 12 12 12 12 12 11 11 11 11 12 11 12 12 12 12 12 13 13 13 14 15 15 15 15 15 15 15 16 17 17 18 18 19 18 19 19 19
14 14 14 14 14 14 14 13 13 13 12 12 12 12 12 12 12 12 12 12 12 13 13 14 15 16 17 18 17 17 16 17 17 18 19 20 20 20 20 20 21 21 22
15 16 16 15 15 15 15 14 14 14 14 14 14 14 14 13 13 13 13 14 14 14 14 15 15 17 18 18 18 19 19 19 19 20 20 21 22 22 22 23 23 23 23
17 17 18 18 17 17 16 15 15 16 16 16 16 15 15 15 15 15 15 15 15 15 15 15 16 16 17 18 19 20 21 21 21 22 22 23 23 23 24 24 24 25 25
19 18 18 19 18 18 18 18 17 18 18 18 17 17 17 17 17 17 17 17 17 17 17 17 18 18 19 20 20 22 22 23 23 24 24 24 24 25 26 26 26 26 27
20 19 19 19 19 19 20 20 19 19 20 20 19 18 19 19 19 19 19 18 18 18 18 19 20 21 21 21 22 23 23 24 25 25 26 25 25 26 27 28 28 28 28
21 20 21 21 21 20 20 20 20 20 20 20 20 20 20 20 20 20 20 20 20 20 21 21 21 22 22 23 23 24 25 25 26 26 26 27 28 28 28 28 28 28 29
23 23 23 23 23 23 22 21 21 21 21 21 21 21 22 22 22 22 22 22 22 22 23 23 23 22 23 24 24 26 26 26 27 27 28 28 28 29 29 30 30 31 31
24 23 24 25 24 23 23 23 23 23 22 22 22 22 22 23 23 23 24 24 24 24 24 24 24 24 23 24 26 26 26 27 27 27 28 29 29 30 31 32 32 32 33
24 24 24 25 25 24 23 23 23 24 24 24 23 23 24 24 24 24 24 25 25 25 25 25 26 26 26 26 26 27 28 28 29 29 29 30 30 30 30 31 32 32 32
Wind_Direction
320 319 318 319 320 319 317 316 314 305 299 295 286 273 270 272 268 266 262 257 246 248 245 250 247 240 243 240 245 254 249 245 244 247 254 249 249 254 260 259 260 263 265
314 311 310 312 317 315 310 317 317 313 304 298 284 277 276 273 268 271 270 274 263 248 239 251 260 255 245 239 248 252 249 247 251 251 255 254 251 255 260 262 262 263 264
318 313 311 311 314 315 318 320 317 314 311 312 301 297 290 275 264 266 267 264 261 256 259 259 260 257 252 250 258 262 257 257 254 253 253 254 256 259 262 261 264 265 266
318 316 314 311 318 317 316 319 320 309 312 312 308 303 290 280 261 257 259 260 260 262 267 273 271 261 257 254 255 258 251 249 245 249 251 254 257 261 266 269 269 268 269
314 310 310 312 315 321 323 322 332 329 322 318 313 305 296 291 278 267 261 262 262 261 267 281 282 267 261 258 257 255 255 254 251 255 255 257 260 264 269 272 273 273 271
307 303 302 306 312 319 320 320 322 323 324 322 323 324 316 311 301 289 276 272 270 265 267 273 276 271 264 259 257 259 263 260 258 257 261 263 264 265 268 270 273 274 272
308 305 298 298 306 314 315 313 315 314 314 310 311 316 311 309 300 292 293 287 283 281 272 271 270 271 268 260 262 266 266 263 262 264 264 266 266 265 266 269 272 274 273
311 312 304 299 302 309 314 313 309 312 308 304 302 302 299 299 297 289 283 285 285 286 277 273 268 266 265 262 264 268 270 266 261 265 265 266 267 268 273 271 272 274 275
303 305 302 300 296 301 308 311 311 309 306 307 305 299 294 295 295 289 281 281 283 282 274 268 263 255 261 266 266 265 267 269 266 267 268 266 264 266 270 269 272 275 276
295 297 300 299 296 298 300 304 305 304 304 306 306 298 297 301 298 290 285 280 280 278 272 262 256 254 263 265 268 268 268 268 266 270 272 271 269 270 267 268 271 272 275
291 291 289 292 295 295 293 297 300 299 299 300 297 295 297 297 294 290 289 283 278 274 269 268 264 260 262 264 264 269 272 268 269 274 276 277 275 273 272 273 275 275 276
287 288 284 284 288 292 291 291 296 300 296 296 294 293 296 298 296 296 294 288 278 272 268 269 267 265 265 264 262 265 268 268 272 275 274 273 272 275 277 277 278 278 278
287 284 283 282 283 288 292 295 300 306 302 295 290 291 292 294 295 294 299 292 281 275 271 271 268 265 266 264 264 266 268 267 269 273 274 274 274 274 275 277 277 278 278
285 280 281 278 280 281 286 291 293 300 301 295 291 289 288 288 289 288 290 290 288 283 279 274 267 264 267 267 269 268 267 267 271 270 273 276 275 274 273 273 276 279 282
279 277 280 279 275 276 279 283 289 293 297 294 289 283 285 286 288 291 290 288 284 283 278 271 261 262 266 266 268 268 267 269 271 269 270 273 273 274 276 276 277 279 281
274 270 276 278 276 274 274 279 284 288 291 288 285 285 282 284 288 290 289 286 284 279 275 270 266 264 266 268 267 266 267 268 271 272 273 274 273 276 280 280 281 281 282
273 271 273 274 275 275 276 279 280 282 283 285 287 289 284 282 283 288 286 285 286 284 279 273 270 267 267 269 269 269 269 269 272 273 273 276 277 278 278 279 281 282 283
273 272 273 274 273 274 275 276 277 278 277 280 284 285 285 281 279 283 285 286 287 286 282 277 275 271 269 269 268 269 271 272 273 275 275 276 277 279 278 278 281 281 282
273 272 273 273 274 275 274 274 275 275 275 277 280 281 282 281 278 278 278 282 284 284 284 282 280 278 274 272 271 269 270 273 273 275 276 276 277 278 280 279 280 281 281
275 273 272 272 272 271 272 273 274 274 275 276 278 278 280 276 275 274 276 281 282 282 284 285 285 283 279 276 275 273 270 272 275 275 275 276 277 278 280 280 280 280 282
274 273 271 270 270 270 272 272 274 273 274 276 275 275 276 274 273 273 276 278 280 282 283 285 286 285 282 279 278 276 274 274 275 276 276 277 279 279 279 280 281 282 283
271 270 272 272 270 271 273 272 271 272 272 273 272 272 273 275 273 272 274 275 277 280 281 282 283 283 281 279 279 278 275 275 276 276 277 278 280 282 282 280 281 281 283
270 270 270 272 271 270 271 272 273 271 270 271 271 269 271 273 274 273 273 274 276 279 280 281 281 281 281 280 280 279 279 278 278 278 278 279 280 282 283 282 281 282 283
272 272 272 271 271 268 267 269 270 269 270 271 271 270 271 272 275 274 272 273 275 277 278 281 281 283 283 282 282 281 280 279 279 280 281 282 282 283 282 282 283 284 284
277 274 274 273 271 267 266 267 267 268 270 270 271 270 271 272 274 274 273 274 276 278 279 281 281 282 284 285 285 284 282 281 281 282 283 285 285 285 283 283 283 284 285
279 277 276 273 271 267 266 265 266 268 270 271 270 270 270 271 271 273 274 275 276 277 278 279 281 282 283 283 285 285 284 284 284 284 284 285 286 287 287 285 285 285 285
Height
5873 5871 5870 5869 5868 5868 5867 5866 5866 5865 5864 5863 5862 5862 5861 5861 5861 5860 5860 5860 5860 5860 5860 5860 5860 5860 5861 5861 5861 5861 5862 5862 5862 5862 5863 5863 5863 5864 5864 5864 5864 5864 5864
5872 5870 5869 5868 5868 5867 5866 5865 5865 5864 5863 5862 5861 5860 5860 5859 5859 5859 5859 5859 5859 5859 5858 5858 5858 5859 5859 5859 5860 5860 5860 5860 5861 5861 5861 5861 5862 5862 5862 5862 5862 5862 5861
5870 5869 5868 5867 5867 5866 5865 5864 5863 5862 5862 5861 5860 5859 5859 5858 5858 5858 5858 5858 5858 5858 5857 5857 5857 5857 5857 5858 5859 5859 5859 5859 5859 5859 5859 5860 5860 5860 5860 5860 5860 5860 5859
5869 5868 5867 5866 5866 5865 5864 5863 5862 5861 5860 5860 5859 5858 5857 5857 5857 5857 5857 5857 5857 5857 5857 5856 5856 5856 5857 5857 5857 5858 5858 5858 5858 5857 5857 5857 5858 5858 5858 5858 5857 5857 5857
5868 5867 5866 5865 5864 5864 5862 5862 5861 5860 5859 5858 5857 5857 5856 5856 5856 5856 5856 5856 5856 5855 5855 5855 5855 5855 5855 5856 5856 5856 5856 5856 5856 5856 5856 5856 5856 5856 5856 5855 5855 5855 5855
5866 5865 5864 5864 5863 5862 5861 5861 5860 5859 5858 5857 5856 5856 5855 5855 5855 5855 5855 5855 5854 5854 5854 5854 5854 5854 5854 5854 5854 5854 5854 5854 5854 5854 5854 5854 5853 5853 5853 5853 5853 5852 5852
5864 5863 5863 5862 5862 5861 5860 5860 5859 5858 5857 5856 5856 5855 5855 5854 5854 5853 5853 5853 5853 5853 5853 5853 5853 5853 5853 5852 5853 5853 5852 5852 5852 5852 5852 5852 5851 5851 5851 5851 5850 5850 5849
5862 5862 5861 5860 5860 5859 5859 5858 5857 5856 5856 5855 5854 5854 5853 5853 5852 5852 5852 5852 5852 5852 5851 5851 5851 5851 5851 5851 5851 5851 5850 5850 5850 5850 5850 5849 5849 5848 5848 5848 5848 5847 5846
5860 5860 5859 5858 5858 5858 5857 5856 5856 5855 5854 5853 5853 5852 5852 5851 5851 5850 5850 5850 5850 5849 5849 5849 5849 5849 5849 5849 5849 5849 5848 5848 5848 5848 5847 5847 5847 5846 5846 5845 5845 5844 5844
5858 5857 5857 5856 5856 5856 5855 5855 5854 5853 5852 5852 5851 5850 5850 5850 5849 5848 5848 5847 5847 5847 5847 5847 5847 5847 5847 5847 5847 5847 5847 5846 5846 5846 5845 5845 5844 5844 5843 5842 5842 5841 5841
5856 5855 5854 5854 5854 5853 5853 5852 5852 5851 5850 5850 5849 5849 5848 5848 5847 5846 5846 5845 5845 5844 5844 5845 5844 5844 5844 5844 5844 5844 5844 5844 5843 5843 5843 5842 5842 5841 5840 5840 5839 5838 5838
5853 5853 5852 5852 5851 5851 5850 5850 5850 5849 5848 5848 5847 5846 5846 5846 5845 5844 5843 5843 5842 5842 5842 5842 5842 5842 5842 5842 5842 5842 5842 5841 5841 5841 5840 5840 5839 5838 5838 5837 5836 5835 5835
5850 5850 5849 5849 5849 5849 5848 5848 5847 5847 5846 5845 5844 5844 5844 5844 5843 5842 5841 5841 5840 5840 5840 5840 5840 5840 5839 5839 5839 5839 5839 5838 5838 5838 5837 5837 5836 5835 5835 5834 5833 5832 5832
5847 5847 5847 5846 5846 5846 5846 5845 5845 5844 5843 5842 5841 5841 5841 5841 5840 5839 5839 5839 5838 5838 5837 5837 5836 5836 5836 5836 5835 5835 5835 5835 5835 5834 5834 5833 5833 5832 5831 5831 5830 5829 5828
5844 5844 5844 5843 5843 5843 5843 5842 5842 5842 5841 5840 5839 5839 5838 5838 5837 5837 5836 5836 5835 5834 5834 5832 5833 5833 5833 5832 5832 5832 5831 5831 5831 5831 5830 5830 5829 5829 5828 5827 5826 5825 5824
5841 5841 5840 5840 5840 5839 5839 5839 5839 5839 5838 5837 5836 5836 5835 5835 5834 5833 5832 5832 5831 5831 5830 5830 5829 5829 5829 5829 5828 5828 5827 5827 5827 5827 5827 5826 5825 5824 5823 5823 5822 5821 5820
5837 5836 5836 5836 5836 5836 5836 5835 5835 5835 5834 5833 5833 5832 5832 5831 5830 5829 5829 5828 5827 5827 5826 5826 5825 5825 5825 5825 5824 5824 5823 5823 5823 5822 5822 5821 5821 5820 5819 5818 5817 5816 5814
5833 5832 5832 5832 5832 5832 5831 5831 5831 5831 5830 5830 5829 5828 5828 5827 5826 5826 5825 5825 5824 5823 5823 5822 5821 5821 5820 5820 5820 5819 5818 5818 5818 5817 5817 5816 5815 5814 5813 5812 5811 5810 5808
5828 5828 5828 5828 5828 5827 5827 5827 5826 5826 5826 5825 5825 5824 5824 5823 5822 5822 5821 5821 5820 5819 5819 5818 5817 5816 5815 5815 5814 5814 5813 5813 5812 5812 5811 5810 5809 5809 5807 5806 5805 5803 5802
5822 5822 5823 5823 5823 5823 5822 5822 5822 5821 5821 5821 5820 5820 5819 5819 5818 5817 5817 5816 5815 5815 5814 5813 5812 5811 5810 5809 5808 5808 5807 5807 5807 5806 5805 5804 5803 5802 5801 5799 5798 5797 5795
5817 5817 5817 5817 5817 5817 5817 5817 5816 5816 5816 5815 5815 5815 5814 5814 5813 5813 5812 5811 5810 5810 5809 5807 5806 5805 5804 5803 5803 5802 5801 5801 5800 5799 5798 5798 5797 5795 5794 5792 5791 5789 5788
5811 5811 5811 5811 5811 5811 5811 5811 5810 5810 5810 5810 5809 5809 5808 5808 5808 5807 5807 5806 5805 5804 5803 5802 5801 5800 5798 5797 5796 5795 5795 5794 5793 5793 5792 5791 5789 5788 5786 5785 5783 5782 5780
5805 5804 5804 5804 5805 5805 5804 5804 5804 5803 5803 5803 5803 5803 5802 5802 5801 5801 5800 5800 5799 5798 5797 5796 5795 5793 5792 5791 5789 5788 5787 5786 5786 5785 5784 5783 5781 5780 5778 5776 5775 5773 5771
5798 5798 5797 5797 5798 5798 5797 5797 5797 5797 5797 5797 5797 5796 5796 5795 5795 5794 5794 5793 5792 5792 5790 5789 5788 5786 5785 5783 5782 5781 5780 5779 5778 5776 5776 5775 5773 5771 5770 5768 5766 5764 5762
5791 5790 5790 5790 5790 5790 5790 5790 5790 5789 5789 5789 5790 5789 5789 5788 5788 5787 5787 5786 5785 5784 5783 5782 5780 5779 5777 5776 5775 5773 5772 5771 5770 5769 5767 5766 5764 5763 5760 5758 5756 5754 5752
5784 5783 5782 5782 5782 5782 5782 5782 5782 5782 5782 5782 5782 5782 5782 5781 5781 5780 5779 5779 5778 5777 5775 5774 5773 5771 5770 5769 5767 5765 5764 5762 5761 5760 5759 5757 5755 5753 5751 5749 5746 5744 5742